Time,TemperatureF,DewpointF,PressureIn,WindDirection,WindDirectionDegrees,WindSpeedMPH,WindSpeedGustMPH,Humidity,HourlyPrecipIn,Conditions,Clouds,dailyrainin,SoftwareType,DateUTC
2013-10-23 00:03:00,34.6,24.8,30.05,NNW,334,0.0,4.0,67,0.00,,OVC050,0.00,VWS V14.00,2013-10-23 05:03:00,
2013-10-23 00:08:00,34.6,24.8,30.05,NNW,335,0.0,6.0,67,0.00,,OVC050,0.00,VWS V14.00,2013-10-23 05:08:00,
2013-10-23 00:13:00,34.5,24.7,30.05,NNW,335,0.0,0.0,67,0.00,,OVC050,0.00,VWS V14.00,2013-10-23 05:13:00,
2013-10-23 00:18:00,34.4,24.6,30.05,NNW,335,0.0,0.0,67,0.00,,OVC050,0.00,VWS V14.00,2013-10-23 05:18:00,
2013-10-23 00:23:00,34.3,24.5,30.04,NNW,335,0.0,0.0,67,0.00,,OVC050,0.00,VWS V14.00,2013-10-23 05:23:00,
2013-10-23 00:28:00,34.2,24.4,30.04,NNW,335,0.0,0.0,67,0.00,,OVC050,0.00,VWS V14.00,2013-10-23 05:28:00,
2013-10-23 00:33:00,34.1,24.3,30.04,NNW,335,0.0,0.0,67,0.00,,OVC050,0.00,VWS V14.00,2013-10-23 05:33:00,
2013-10-23 00:38:00,34.0,24.2,30.04,NNW,335,0.0,0.0,67,0.00,,OVC050,0.00,VWS V14.00,2013-10-23 05:38:00,
2013-10-23 00:43:00,33.9,24.1,30.04,NNW,335,0.0,6.0,67,0.00,,OVC050,0.00,VWS V14.00,2013-10-23 05:43:00,
2013-10-23 00:48:00,33.8,23.7,30.04,NNW,335,0.0,6.0,66,0.00,,OVC050,0.00,VWS V14.00,2013-10-23 05:48:00,
2013-10-23 00:53:00,33.8,24.0,30.04,NNW,335,0.0,0.0,67,0.00,,OVC050,0.00,VWS V14.00,2013-10-23 05:53:00,
2013-10-23 00:58:00,33.8,24.0,30.05,NNW,335,5.0,5.0,67,0.00,,OVC050,0.00,VWS V14.00,2013-10-23 05:58:00,
2013-10-23 01:03:00,33.8,24.0,30.04,NNW,335,0.0,4.0,67,0.00,,OVC048,0.00,VWS V14.00,2013-10-23 06:03:00,
2013-10-23 01:08:00,33.8,24.0,30.04,NNW,335,0.0,4.0,67,0.00,,OVC048,0.00,VWS V14.00,2013-10-23 06:08:00,
2013-10-23 01:13:00,33.8,24.4,30.04,NNW,335,0.0,0.0,68,0.00,,OVC048,0.00,VWS V14.00,2013-10-23 06:13:00,
2013-10-23 01:18:00,33.8,24.4,30.04,NNW,335,0.0,0.0,68,0.00,,OVC048,0.00,VWS V14.00,2013-10-23 06:18:00,
2013-10-23 01:23:00,33.8,24.4,30.04,NNW,335,0.0,2.0,68,0.00,,OVC048,0.00,VWS V14.00,2013-10-23 06:23:00,
2013-10-23 01:28:00,33.7,24.3,30.05,NNW,335,0.0,2.0,68,0.00,,OVC048,0.00,VWS V14.00,2013-10-23 06:28:00,
2013-10-23 01:33:00,33.7,24.3,30.04,NNW,335,0.0,1.0,68,0.00,,OVC048,0.00,VWS V14.00,2013-10-23 06:33:00,
2013-10-23 01:38:00,33.6,24.2,30.04,NNW,335,0.0,1.0,68,0.00,,OVC048,0.00,VWS V14.00,2013-10-23 06:38:00,
2013-10-23 01:43:00,33.6,23.8,30.04,NNW,334,4.0,7.0,67,0.00,,OVC048,0.00,VWS V14.00,2013-10-23 06:43:00,
2013-10-23 01:48:00,33.5,23.7,30.04,NNW,334,0.0,7.0,67,0.00,,OVC048,0.00,VWS V14.00,2013-10-23 06:48:00,
2013-10-23 01:53:00,33.5,23.4,30.05,NNW,334,0.0,6.0,66,0.00,,OVC048,0.00,VWS V14.00,2013-10-23 06:53:00,
2013-10-23 01:58:00,33.5,23.4,30.04,NNW,336,6.0,7.0,66,0.00,,OVC048,0.00,VWS V14.00,2013-10-23 06:58:00,
2013-10-23 02:03:00,33.4,23.3,30.04,NNW,338,3.0,8.0,66,0.00,,OVC044,0.00,VWS V14.00,2013-10-23 07:03:00,
2013-10-23 02:08:00,33.3,22.8,30.05,NNW,337,0.0,8.0,65,0.00,,OVC044,0.00,VWS V14.00,2013-10-23 07:08:00,
2013-10-23 02:13:00,33.3,22.8,30.05,NNW,337,0.0,6.0,65,0.00,,OVC044,0.00,VWS V14.00,2013-10-23 07:13:00,
2013-10-23 02:18:00,33.2,22.7,30.05,NNW,337,0.0,7.0,65,0.00,,OVC044,0.00,VWS V14.00,2013-10-23 07:18:00,
2013-10-23 02:23:00,33.2,22.4,30.05,NW,318,4.0,9.0,64,0.00,,OVC044,0.00,VWS V14.00,2013-10-23 07:23:00,
2013-10-23 02:28:00,33.3,22.1,30.04,NW,324,5.0,9.0,63,0.00,,OVC044,0.00,VWS V14.00,2013-10-23 07:28:00,
2013-10-23 02:34:00,33.3,22.1,30.05,NNW,332,1.0,7.0,63,0.00,,OVC044,0.00,VWS V14.00,2013-10-23 07:34:00,
2013-10-23 02:38:00,33.3,22.1,30.05,NNW,332,2.0,7.0,63,0.00,,OVC044,0.00,VWS V14.00,2013-10-23 07:38:00,
2013-10-23 02:44:00,33.3,21.7,30.05,NNW,332,4.0,8.0,62,0.00,,OVC044,0.00,VWS V14.00,2013-10-23 07:44:00,
2013-10-23 02:49:00,33.3,21.7,30.05,NNW,332,0.0,8.0,62,0.00,,OVC044,0.00,VWS V14.00,2013-10-23 07:49:00,
2013-10-23 02:54:00,33.3,21.7,30.05,NNW,332,4.0,6.0,62,0.00,,OVC044,0.00,VWS V14.00,2013-10-23 07:54:00,
2013-10-23 02:59:00,33.3,21.3,30.05,NNW,332,0.0,6.0,61,0.00,,OVC044,0.00,VWS V14.00,2013-10-23 07:59:00,
2013-10-23 03:04:00,33.3,21.3,30.04,NNW,332,0.0,7.0,61,0.00,,OVC042,0.00,VWS V14.00,2013-10-23 08:04:00,
2013-10-23 03:09:00,33.3,20.9,30.04,NNW,332,0.0,7.0,60,0.00,,OVC042,0.00,VWS V14.00,2013-10-23 08:09:00,
2013-10-23 03:14:00,33.3,20.9,30.04,NNW,332,0.0,5.0,60,0.00,,OVC042,0.00,VWS V14.00,2013-10-23 08:14:00,
2013-10-23 03:19:00,33.3,21.3,30.04,NNW,332,0.0,5.0,61,0.00,,OVC042,0.00,VWS V14.00,2013-10-23 08:19:00,
2013-10-23 03:24:00,33.3,21.3,30.04,NNW,332,0.0,0.0,61,0.00,,OVC042,0.00,VWS V14.00,2013-10-23 08:24:00,
2013-10-23 03:29:00,33.2,21.2,30.04,NNW,332,0.0,0.0,61,0.00,,OVC042,0.00,VWS V14.00,2013-10-23 08:29:00,
2013-10-23 03:34:00,33.2,21.2,30.04,NNW,332,0.0,0.0,61,0.00,,OVC042,0.00,VWS V14.00,2013-10-23 08:34:00,
2013-10-23 03:39:00,33.2,21.2,30.04,NNW,332,0.0,0.0,61,0.00,,OVC042,0.00,VWS V14.00,2013-10-23 08:39:00,
2013-10-23 03:44:00,33.1,21.1,30.04,NNW,332,0.0,0.0,61,0.00,,OVC042,0.00,VWS V14.00,2013-10-23 08:44:00,
2013-10-23 03:49:00,33.1,21.1,30.04,NNW,332,0.0,0.0,61,0.00,,OVC042,0.00,VWS V14.00,2013-10-23 08:49:00,
2013-10-23 03:54:00,33.1,21.5,30.04,NNW,332,0.0,0.0,62,0.00,,OVC042,0.00,VWS V14.00,2013-10-23 08:54:00,
2013-10-23 03:59:00,33.1,21.5,30.04,NNW,332,0.0,0.0,62,0.00,,OVC042,0.00,VWS V14.00,2013-10-23 08:59:00,
2013-10-23 04:04:00,33.1,21.5,30.04,NNW,332,0.0,0.0,62,0.00,,OVC042,0.00,VWS V14.00,2013-10-23 09:04:00,
2013-10-23 04:09:00,33.1,21.5,30.04,NNW,332,2.0,5.0,62,0.00,,OVC042,0.00,VWS V14.00,2013-10-23 09:09:00,
2013-10-23 04:14:00,33.1,21.5,30.04,NNW,332,2.0,5.0,62,0.00,,OVC042,0.00,VWS V14.00,2013-10-23 09:14:00,
2013-10-23 04:19:00,33.0,21.4,30.04,NNW,332,0.0,5.0,62,0.00,,OVC042,0.00,VWS V14.00,2013-10-23 09:19:00,
2013-10-23 04:24:00,33.0,21.4,30.04,NNW,331,0.0,7.0,62,0.00,,OVC042,0.00,VWS V14.00,2013-10-23 09:24:00,
2013-10-23 04:29:00,33.0,21.4,30.04,NNW,331,0.0,7.0,62,0.00,,OVC042,0.00,VWS V14.00,2013-10-23 09:29:00,
2013-10-23 04:34:00,32.9,21.3,30.04,NNW,328,0.0,7.0,62,0.00,,OVC042,0.00,VWS V14.00,2013-10-23 09:34:00,
2013-10-23 04:39:00,32.9,21.3,30.04,NW,316,0.0,9.0,62,0.00,,OVC042,0.00,VWS V14.00,2013-10-23 09:39:00,
2013-10-23 04:44:00,32.8,21.2,30.04,NW,311,0.0,7.0,62,0.00,,OVC042,0.00,VWS V14.00,2013-10-23 09:44:00,
2013-10-23 04:49:00,32.8,21.6,30.04,NW,311,2.0,8.0,63,0.00,,OVC042,0.00,VWS V14.00,2013-10-23 09:49:00,
2013-10-23 04:54:00,32.8,21.6,30.04,NW,305,3.0,10.0,63,0.00,,OVC042,0.00,VWS V14.00,2013-10-23 09:54:00,
2013-10-23 04:59:00,32.8,22.0,30.04,NW,315,6.0,10.0,64,0.00,,OVC042,0.00,VWS V14.00,2013-10-23 09:59:00,
2013-10-23 05:04:00,32.7,21.9,30.04,NNW,332,0.0,10.0,64,0.00,,OVC040,0.00,VWS V14.00,2013-10-23 10:04:00,
2013-10-23 05:09:00,32.6,22.1,30.04,NNW,333,9.0,10.0,65,0.00,,OVC040,0.00,VWS V14.00,2013-10-23 10:09:00,
2013-10-23 05:14:00,32.5,22.1,30.04,NNW,333,0.0,7.0,65,0.00,,OVC040,0.00,VWS V14.00,2013-10-23 10:14:00,
2013-10-23 05:19:00,32.3,21.9,30.05,NNW,332,0.0,7.0,65,0.00,,OVC040,0.00,VWS V14.00,2013-10-23 10:19:00,
2013-10-23 05:24:00,32.2,21.8,30.05,NNW,332,0.0,3.0,65,0.00,,OVC040,0.00,VWS V14.00,2013-10-23 10:24:00,
2013-10-23 05:29:00,32.1,21.7,30.05,NNW,332,0.0,7.0,65,0.00,,OVC040,0.00,VWS V14.00,2013-10-23 10:29:00,
2013-10-23 05:34:00,32.1,22.0,30.05,NNW,332,4.0,5.0,66,0.00,,OVC040,0.00,VWS V14.00,2013-10-23 10:34:00,
2013-10-23 05:39:00,32.1,22.0,30.05,NNW,332,0.0,5.0,66,0.00,,OVC040,0.00,VWS V14.00,2013-10-23 10:39:00,
2013-10-23 05:44:00,32.0,22.3,30.05,NNW,332,4.0,5.0,67,0.00,,OVC040,0.00,VWS V14.00,2013-10-23 10:44:00,
2013-10-23 05:49:00,32.0,21.9,30.05,NNW,332,0.0,5.0,66,0.00,,OVC040,0.00,VWS V14.00,2013-10-23 10:49:00,
2013-10-23 05:54:00,31.9,21.9,30.05,NNW,332,0.0,0.0,66,0.00,,OVC040,0.00,VWS V14.00,2013-10-23 10:54:00,
2013-10-23 05:59:00,31.8,21.8,30.04,NNW,332,0.0,0.0,66,0.00,,OVC040,0.00,VWS V14.00,2013-10-23 10:59:00,
2013-10-23 06:04:00,31.8,22.1,30.05,NNW,332,0.0,0.0,67,0.00,,OVC044,0.00,VWS V14.00,2013-10-23 11:04:00,
2013-10-23 06:09:00,31.7,22.0,30.05,NNW,332,0.0,0.0,67,0.00,,OVC044,0.00,VWS V14.00,2013-10-23 11:09:00,
2013-10-23 06:14:00,31.7,21.7,30.05,NNW,332,0.0,0.0,66,0.00,,OVC044,0.00,VWS V14.00,2013-10-23 11:14:00,
2013-10-23 06:19:00,31.7,22.0,30.05,NNW,332,0.0,0.0,67,0.00,,OVC044,0.00,VWS V14.00,2013-10-23 11:19:00,
2013-10-23 06:24:00,31.6,21.9,30.05,NNW,332,0.0,0.0,67,0.00,,OVC044,0.00,VWS V14.00,2013-10-23 11:24:00,
2013-10-23 06:29:00,31.6,21.9,30.05,NNW,332,0.0,0.0,67,0.00,,OVC044,0.00,VWS V14.00,2013-10-23 11:29:00,
2013-10-23 06:34:00,31.7,22.0,30.05,NNW,332,0.0,0.0,67,0.00,,OVC044,0.00,VWS V14.00,2013-10-23 11:34:00,
2013-10-23 06:39:00,31.7,22.0,30.05,NNW,332,0.0,0.0,67,0.00,,OVC044,0.00,VWS V14.00,2013-10-23 11:39:00,
2013-10-23 06:44:00,31.7,22.0,30.05,NNW,332,0.0,0.0,67,0.00,,OVC044,0.00,VWS V14.00,2013-10-23 11:44:00,
2013-10-23 06:49:00,31.6,21.9,30.05,NNW,332,0.0,0.0,67,0.00,,OVC044,0.00,VWS V14.00,2013-10-23 11:49:00,
2013-10-23 06:54:00,31.7,22.0,30.05,NNW,332,0.0,0.0,67,0.00,,OVC044,0.00,VWS V14.00,2013-10-23 11:54:00,
2013-10-23 06:59:00,31.7,22.0,30.05,NNW,332,0.0,0.0,67,0.00,,OVC044,0.00,VWS V14.00,2013-10-23 11:59:00,
2013-10-23 07:05:00,31.7,21.7,30.06,NNW,332,0.0,0.0,66,0.00,,OVC044,0.00,VWS V14.00,2013-10-23 12:05:00,
2013-10-23 07:10:00,31.8,21.8,30.06,NNW,332,0.0,0.0,66,0.00,,OVC044,0.00,VWS V14.00,2013-10-23 12:10:00,
2013-10-23 07:15:00,31.9,21.5,30.06,NNW,332,2.0,4.0,65,0.00,,OVC044,0.00,VWS V14.00,2013-10-23 12:15:00,
2013-10-23 07:20:00,32.0,21.2,30.06,NNW,332,0.0,4.0,64,0.00,,OVC044,0.00,VWS V14.00,2013-10-23 12:20:00,
2013-10-23 07:25:00,32.0,21.2,30.06,NNW,332,0.0,0.0,64,0.00,,OVC044,0.00,VWS V14.00,2013-10-23 12:25:00,
2013-10-23 07:30:00,32.1,20.9,30.06,NW,324,5.0,7.0,63,0.00,,OVC044,0.00,VWS V14.00,2013-10-23 12:30:00,
2013-10-23 07:35:00,32.2,21.0,30.06,NW,322,1.0,5.0,63,0.00,,OVC044,0.00,VWS V14.00,2013-10-23 12:35:00,
2013-10-23 07:40:00,32.1,20.9,30.06,WNW,300,6.0,7.0,63,0.00,,OVC044,0.00,VWS V14.00,2013-10-23 12:40:00,
2013-10-23 07:45:00,32.0,20.9,30.06,WNW,294,0.0,8.0,63,0.00,,OVC044,0.00,VWS V14.00,2013-10-23 12:45:00,
2013-10-23 07:50:00,31.9,21.1,30.07,WNW,294,1.0,4.0,64,0.00,,OVC044,0.00,VWS V14.00,2013-10-23 12:50:00,
2013-10-23 07:55:00,31.7,21.3,30.06,WNW,296,0.0,7.0,65,0.00,,OVC044,0.00,VWS V14.00,2013-10-23 12:55:00,
2013-10-23 08:00:00,31.7,21.3,30.07,NW,311,5.0,6.0,65,0.00,,OVC044,0.00,VWS V14.00,2013-10-23 13:00:00,
2013-10-23 08:05:00,31.6,21.2,30.07,NW,311,0.0,9.0,65,0.00,,OVC044,0.00,VWS V14.00,2013-10-23 13:05:00,
2013-10-23 08:10:00,31.7,21.3,30.07,NW,313,0.0,7.0,65,0.00,,OVC044,0.00,VWS V14.00,2013-10-23 13:10:00,
2013-10-23 08:15:00,31.7,21.7,30.07,NW,314,0.0,7.0,66,0.00,,OVC044,0.00,VWS V14.00,2013-10-23 13:15:00,
2013-10-23 08:20:00,31.8,21.8,30.07,NNW,335,2.0,6.0,66,0.00,,OVC044,0.00,VWS V14.00,2013-10-23 13:20:00,
2013-10-23 08:25:00,31.9,21.9,30.07,NNW,335,0.0,7.0,66,0.00,,OVC044,0.00,VWS V14.00,2013-10-23 13:25:00,
2013-10-23 08:30:00,32.0,21.9,30.08,NNW,335,0.0,0.0,66,0.00,,OVC044,0.00,VWS V14.00,2013-10-23 13:30:00,
2013-10-23 08:35:00,32.0,21.9,30.08,NNW,333,4.0,7.0,66,0.00,,OVC044,0.00,VWS V14.00,2013-10-23 13:35:00,
2013-10-23 08:40:00,32.1,22.0,30.08,NNW,333,0.0,0.0,66,0.00,,OVC044,0.00,VWS V14.00,2013-10-23 13:40:00,
2013-10-23 08:45:00,32.1,22.0,30.08,NNW,332,0.0,3.0,66,0.00,,OVC044,0.00,VWS V14.00,2013-10-23 13:45:00,
2013-10-23 08:50:00,32.2,22.1,30.08,NNW,332,0.0,0.0,66,0.00,,OVC044,0.00,VWS V14.00,2013-10-23 13:50:00,
2013-10-23 08:55:00,32.2,22.1,30.08,NNW,333,0.0,9.0,66,0.00,,OVC044,0.00,VWS V14.00,2013-10-23 13:55:00,
2013-10-23 09:00:00,32.3,22.2,30.08,NNW,334,0.0,0.0,66,0.00,,OVC044,0.00,VWS V14.00,2013-10-23 14:00:00,
2013-10-23 09:05:00,32.3,22.2,30.08,NNW,335,6.0,7.0,66,0.00,,OVC044,0.00,VWS V14.00,2013-10-23 14:05:00,
2013-10-23 09:10:00,32.4,22.3,30.08,NNW,336,0.0,0.0,66,0.00,,OVC044,0.00,VWS V14.00,2013-10-23 14:10:00,
2013-10-23 09:15:00,32.5,22.4,30.08,NNW,336,0.0,6.0,66,0.00,,OVC044,0.00,VWS V14.00,2013-10-23 14:15:00,
2013-10-23 09:20:00,32.6,22.5,30.09,NNW,336,0.0,0.0,66,0.00,,OVC044,0.00,VWS V14.00,2013-10-23 14:20:00,
2013-10-23 09:25:00,32.8,22.7,30.09,NNW,336,0.0,0.0,66,0.00,,OVC044,0.00,VWS V14.00,2013-10-23 14:25:00,
2013-10-23 09:30:00,32.8,22.3,30.09,NNW,336,0.0,0.0,65,0.00,,OVC044,0.00,VWS V14.00,2013-10-23 14:30:00,
2013-10-23 09:35:00,33.0,22.5,30.09,NNW,332,0.0,10.0,65,0.00,,OVC044,0.00,VWS V14.00,2013-10-23 14:35:00,
2013-10-23 09:40:00,33.1,22.6,30.09,NNW,332,0.0,0.0,65,0.00,,OVC044,0.00,VWS V14.00,2013-10-23 14:40:00,
2013-10-23 09:45:00,33.2,22.7,30.09,NNW,337,0.0,8.0,65,0.00,,OVC044,0.00,VWS V14.00,2013-10-23 14:45:00,
2013-10-23 09:50:00,33.4,22.5,30.09,NNW,335,0.0,4.0,64,0.00,,OVC044,0.00,VWS V14.00,2013-10-23 14:50:00,
2013-10-23 09:55:00,33.5,22.6,30.09,NNW,339,3.0,8.0,64,0.00,,OVC044,0.00,VWS V14.00,2013-10-23 14:55:00,
2013-10-23 10:00:00,33.7,22.8,30.09,NNW,337,0.0,0.0,64,0.00,,OVC044,0.00,VWS V14.00,2013-10-23 15:00:00,
2013-10-23 10:05:00,33.8,22.2,30.09,NNW,332,4.0,8.0,62,0.00,,OVC044,0.00,VWS V14.00,2013-10-23 15:05:00,
2013-10-23 10:10:00,33.9,22.3,30.09,NNW,327,0.0,0.0,62,0.00,,OVC044,0.00,VWS V14.00,2013-10-23 15:10:00,
2013-10-23 10:15:00,34.1,22.5,30.09,NNW,346,0.0,9.0,62,0.00,,OVC044,0.00,VWS V14.00,2013-10-23 15:15:00,
2013-10-23 10:20:00,34.2,21.8,30.09,North,350,0.0,6.0,60,0.00,,OVC044,0.00,VWS V14.00,2013-10-23 15:20:00,
2013-10-23 10:25:00,34.3,21.9,30.09,NNW,341,0.0,9.0,60,0.00,,OVC044,0.00,VWS V14.00,2013-10-23 15:25:00,
2013-10-23 10:30:00,34.6,21.8,30.09,NNW,346,8.0,8.0,59,0.00,,OVC044,0.00,VWS V14.00,2013-10-23 15:30:00,
2013-10-23 10:35:00,35.2,21.9,30.09,NNW,336,0.0,9.0,58,0.00,,OVC044,0.00,VWS V14.00,2013-10-23 15:35:00,
2013-10-23 10:40:00,36.0,22.3,30.09,NNW,346,4.0,6.0,57,0.00,,OVC044,0.00,VWS V14.00,2013-10-23 15:40:00,
2013-10-23 10:45:00,36.7,22.9,30.10,NNW,336,0.0,7.0,57,0.00,,OVC044,0.00,VWS V14.00,2013-10-23 15:45:00,
2013-10-23 10:50:00,37.2,22.1,30.10,NNW,330,4.0,10.0,54,0.00,,OVC044,0.00,VWS V14.00,2013-10-23 15:50:00,
2013-10-23 10:55:00,37.0,21.5,30.10,NNW,345,3.0,12.0,53,0.00,,OVC044,0.00,VWS V14.00,2013-10-23 15:55:00,
2013-10-23 11:00:00,37.0,21.9,30.10,NW,323,0.0,5.0,54,0.00,,FEW044,0.00,VWS V14.00,2013-10-23 16:00:00,
2013-10-23 11:05:00,37.3,21.8,30.10,NNW,347,0.0,15.0,53,0.00,,FEW044,0.00,VWS V14.00,2013-10-23 16:05:00,
2013-10-23 11:10:00,37.1,21.1,30.10,NNW,332,1.0,12.0,52,0.00,,FEW044,0.00,VWS V14.00,2013-10-23 16:10:00,
2013-10-23 11:16:00,37.3,21.3,30.10,North,356,9.0,13.0,52,0.00,,FEW044,0.00,VWS V14.00,2013-10-23 16:16:00,
2013-10-23 11:21:00,37.3,21.3,30.10,NNW,336,5.0,12.0,52,0.00,,FEW044,0.00,VWS V14.00,2013-10-23 16:21:00,
2013-10-23 11:26:00,37.4,21.4,30.10,North,0,8.0,13.0,52,0.00,,FEW044,0.00,VWS V14.00,2013-10-23 16:26:00,
2013-10-23 11:31:00,37.5,21.0,30.10,NNW,333,0.0,10.0,51,0.00,,FEW044,0.00,VWS V14.00,2013-10-23 16:31:00,
2013-10-23 11:36:00,37.2,21.7,30.10,North,0,11.0,13.0,53,0.00,,FEW044,0.00,VWS V14.00,2013-10-23 16:36:00,
2013-10-23 11:41:00,37.8,22.2,30.10,NNW,348,0.0,8.0,53,0.00,,FEW044,0.00,VWS V14.00,2013-10-23 16:41:00,
2013-10-23 11:46:00,37.5,20.6,30.11,NNW,333,7.0,14.0,50,0.00,,FEW044,0.00,VWS V14.00,2013-10-23 16:46:00,
2013-10-23 11:51:00,37.2,20.8,30.10,North,0,4.0,9.0,51,0.00,,FEW044,0.00,VWS V14.00,2013-10-23 16:51:00,
2013-10-23 11:56:00,37.4,21.4,30.10,North,1,13.0,13.0,52,0.00,,FEW044,0.00,VWS V14.00,2013-10-23 16:56:00,
2013-10-23 12:01:00,37.5,21.0,30.10,WNW,302,7.0,13.0,51,0.00,,SCT038,0.00,VWS V14.00,2013-10-23 17:01:00,
2013-10-23 12:06:00,37.5,21.0,30.11,NNW,328,9.0,14.0,51,0.00,,SCT038,0.00,VWS V14.00,2013-10-23 17:06:00,
2013-10-23 12:11:00,37.9,21.9,30.11,NNW,333,12.0,12.0,52,0.00,,SCT038,0.00,VWS V14.00,2013-10-23 17:11:00,
2013-10-23 12:16:00,38.5,21.5,30.10,North,350,6.0,12.0,50,0.00,,SCT038,0.00,VWS V14.00,2013-10-23 17:16:00,
2013-10-23 12:21:00,38.9,21.4,30.11,NNW,337,9.0,9.0,49,0.00,,SCT038,0.00,VWS V14.00,2013-10-23 17:21:00,
2013-10-23 12:26:00,38.9,21.9,30.11,NNW,337,3.0,13.0,50,0.00,,SCT038,0.00,VWS V14.00,2013-10-23 17:26:00,
2013-10-23 12:31:00,38.5,21.0,30.11,NNW,337,3.0,13.0,49,0.00,,SCT038,0.00,VWS V14.00,2013-10-23 17:31:00,
2013-10-23 12:36:00,38.6,21.6,30.11,NW,326,1.0,15.0,50,0.00,,SCT038,0.00,VWS V14.00,2013-10-23 17:36:00,
2013-10-23 12:41:00,38.8,21.8,30.10,NW,308,9.0,12.0,50,0.00,,SCT038,0.00,VWS V14.00,2013-10-23 17:41:00,
2013-10-23 12:46:00,39.3,21.8,30.11,North,351,7.0,13.0,49,0.00,,SCT038,0.00,VWS V14.00,2013-10-23 17:46:00,
2013-10-23 12:51:00,39.4,21.4,30.10,NNW,332,0.0,9.0,48,0.00,,SCT038,0.00,VWS V14.00,2013-10-23 17:51:00,
2013-10-23 12:56:00,39.5,21.5,30.10,WNW,282,7.0,15.0,48,0.00,,SCT038,0.00,VWS V14.00,2013-10-23 17:56:00,
2013-10-23 13:01:00,39.2,21.2,30.10,NNW,328,8.0,17.0,48,0.00,,OVC070,0.00,VWS V14.00,2013-10-23 18:01:00,
2013-10-23 13:06:00,38.9,20.9,30.10,North,357,14.0,17.0,48,0.00,,OVC070,0.00,VWS V14.00,2013-10-23 18:06:00,
2013-10-23 13:11:00,38.9,21.9,30.10,North,355,6.0,11.0,50,0.00,,OVC070,0.00,VWS V14.00,2013-10-23 18:11:00,
2013-10-23 13:16:00,38.9,21.9,30.10,NNW,338,7.0,15.0,50,0.00,,OVC070,0.00,VWS V14.00,2013-10-23 18:16:00,
2013-10-23 13:21:00,38.9,21.9,30.10,North,352,10.0,13.0,50,0.00,,OVC070,0.00,VWS V14.00,2013-10-23 18:21:00,
2013-10-23 13:26:00,38.8,21.8,30.10,NNW,343,6.0,15.0,50,0.00,,OVC070,0.00,VWS V14.00,2013-10-23 18:26:00,
2013-10-23 13:31:00,38.6,21.6,30.10,NW,308,11.0,13.0,50,0.00,,OVC070,0.00,VWS V14.00,2013-10-23 18:31:00,
2013-10-23 13:36:00,38.5,21.5,30.10,North,359,9.0,17.0,50,0.00,,OVC070,0.00,VWS V14.00,2013-10-23 18:36:00,
2013-10-23 13:41:00,38.6,22.0,30.10,North,353,8.0,16.0,51,0.00,,OVC070,0.00,VWS V14.00,2013-10-23 18:41:00,
2013-10-23 13:46:00,38.9,22.3,30.10,NNW,335,7.0,16.0,51,0.00,,OVC070,0.00,VWS V14.00,2013-10-23 18:46:00,
2013-10-23 13:51:00,38.9,22.3,30.10,North,352,9.0,14.0,51,0.00,,OVC070,0.00,VWS V14.00,2013-10-23 18:51:00,
2013-10-23 13:56:00,39.0,22.4,30.10,NNW,328,8.0,14.0,51,0.00,,OVC070,0.00,VWS V14.00,2013-10-23 18:56:00,
2013-10-23 14:01:00,39.0,22.4,30.10,North,357,6.0,12.0,51,0.00,,OVC070,0.00,VWS V14.00,2013-10-23 19:01:00,
2013-10-23 14:06:00,39.0,22.9,30.10,North,351,6.0,15.0,52,0.00,,OVC070,0.00,VWS V14.00,2013-10-23 19:06:00,
2013-10-23 14:11:00,38.9,22.3,30.10,NNW,338,0.0,15.0,51,0.00,,OVC070,0.00,VWS V14.00,2013-10-23 19:11:00,
2013-10-23 14:16:00,38.9,22.8,30.10,NNW,335,11.0,15.0,52,0.00,,OVC070,0.00,VWS V14.00,2013-10-23 19:16:00,
2013-10-23 14:21:00,38.9,22.3,30.10,NW,324,13.0,14.0,51,0.00,,OVC070,0.00,VWS V14.00,2013-10-23 19:21:00,
2013-10-23 14:26:00,38.8,22.7,30.10,NNW,336,4.0,15.0,52,0.00,,OVC070,0.00,VWS V14.00,2013-10-23 19:26:00,
2013-10-23 14:31:00,38.7,22.6,30.10,NNW,331,7.0,9.0,52,0.00,,OVC070,0.00,VWS V14.00,2013-10-23 19:31:00,
2013-10-23 14:36:00,38.7,22.6,30.10,NNW,346,6.0,20.0,52,0.00,,OVC070,0.00,VWS V14.00,2013-10-23 19:36:00,
2013-10-23 14:41:00,38.5,22.4,30.10,NNW,335,10.0,13.0,52,0.00,,OVC070,0.00,VWS V14.00,2013-10-23 19:41:00,
2013-10-23 14:46:00,38.4,22.8,30.10,NNW,348,6.0,16.0,53,0.00,,OVC070,0.00,VWS V14.00,2013-10-23 19:46:00,
2013-10-23 14:52:00,38.6,23.4,30.10,NNW,347,4.0,11.0,54,0.00,,OVC070,0.00,VWS V14.00,2013-10-23 19:52:00,
2013-10-23 14:57:00,38.6,23.0,30.10,North,352,0.0,12.0,53,0.00,,OVC070,0.00,VWS V14.00,2013-10-23 19:57:00,
2013-10-23 15:01:00,38.5,22.9,30.10,North,354,9.0,13.0,53,0.00,,OVC070,0.00,VWS V14.00,2013-10-23 20:01:00,
2013-10-23 15:07:00,38.3,22.7,30.10,NNW,337,4.0,14.0,53,0.00,,OVC070,0.00,VWS V14.00,2013-10-23 20:07:00,
2013-10-23 15:12:00,38.2,23.0,30.10,NNW,328,7.0,15.0,54,0.00,,OVC070,0.00,VWS V14.00,2013-10-23 20:12:00,
2013-10-23 15:17:00,38.1,22.9,30.10,NNW,341,7.0,15.0,54,0.00,,OVC070,0.00,VWS V14.00,2013-10-23 20:17:00,
2013-10-23 15:22:00,38.0,22.9,30.10,NW,320,5.0,9.0,54,0.00,,OVC070,0.00,VWS V14.00,2013-10-23 20:22:00,
2013-10-23 15:27:00,38.0,23.3,30.10,NW,322,7.0,11.0,55,0.00,,OVC070,0.00,VWS V14.00,2013-10-23 20:27:00,
2013-10-23 15:32:00,38.0,22.9,30.11,NNW,329,0.0,12.0,54,0.00,,OVC070,0.00,VWS V14.00,2013-10-23 20:32:00,
2013-10-23 15:37:00,38.0,23.3,30.11,NNW,345,0.0,12.0,55,0.00,,OVC070,0.00,VWS V14.00,2013-10-23 20:37:00,
2013-10-23 15:42:00,38.1,22.9,30.11,NNW,340,12.0,16.0,54,0.00,,OVC070,0.00,VWS V14.00,2013-10-23 20:42:00,
2013-10-23 15:47:00,37.9,22.8,30.11,NNW,335,7.0,16.0,54,0.00,,OVC070,0.00,VWS V14.00,2013-10-23 20:47:00,
2013-10-23 15:52:00,37.8,23.1,30.11,NNW,329,0.0,11.0,55,0.00,,OVC070,0.00,VWS V14.00,2013-10-23 20:52:00,
2013-10-23 15:57:00,37.7,23.0,30.11,North,352,0.0,16.0,55,0.00,,OVC070,0.00,VWS V14.00,2013-10-23 20:57:00,
2013-10-23 16:02:00,37.6,23.3,30.11,NNW,347,5.0,13.0,56,0.00,,OVC040,0.00,VWS V14.00,2013-10-23 21:02:00,
2013-10-23 16:07:00,37.5,22.8,30.12,NNW,329,7.0,13.0,55,0.00,,OVC040,0.00,VWS V14.00,2013-10-23 21:07:00,
2013-10-23 16:12:00,37.4,23.1,30.11,NNW,338,4.0,14.0,56,0.00,,OVC040,0.00,VWS V14.00,2013-10-23 21:12:00,
2013-10-23 16:17:00,37.3,23.5,30.12,NNW,335,4.0,14.0,57,0.00,,OVC040,0.00,VWS V14.00,2013-10-23 21:17:00,
2013-10-23 16:22:00,37.4,24.0,30.12,North,356,4.0,15.0,58,0.00,,OVC040,0.00,VWS V14.00,2013-10-23 21:22:00,
2013-10-23 16:27:00,37.5,24.1,30.12,NNW,336,4.0,15.0,58,0.00,,OVC040,0.00,VWS V14.00,2013-10-23 21:27:00,
2013-10-23 16:32:00,37.6,24.2,30.12,North,355,9.0,11.0,58,0.00,,OVC040,0.00,VWS V14.00,2013-10-23 21:32:00,
2013-10-23 16:37:00,37.6,24.2,30.12,North,352,9.0,13.0,58,0.00,,OVC040,0.00,VWS V14.00,2013-10-23 21:37:00,
2013-10-23 16:42:00,37.5,24.1,30.12,North,350,0.0,9.0,58,0.00,,OVC040,0.00,VWS V14.00,2013-10-23 21:42:00,
2013-10-23 16:47:00,37.5,24.1,30.12,NNW,337,6.0,11.0,58,0.00,,OVC040,0.00,VWS V14.00,2013-10-23 21:47:00,
2013-10-23 16:52:00,37.5,24.5,30.12,NNW,338,3.0,7.0,59,0.00,,OVC040,0.00,VWS V14.00,2013-10-23 21:52:00,
2013-10-23 16:57:00,37.5,24.5,30.12,NNW,335,8.0,12.0,59,0.00,,OVC040,0.00,VWS V14.00,2013-10-23 21:57:00,
2013-10-23 17:02:00,37.5,24.5,30.12,North,355,8.0,10.0,59,0.00,,OVC070,0.00,VWS V14.00,2013-10-23 22:02:00,
2013-10-23 17:07:00,37.4,24.4,30.12,North,354,0.0,11.0,59,0.00,,OVC070,0.00,VWS V14.00,2013-10-23 22:07:00,
2013-10-23 17:12:00,37.3,24.3,30.12,North,356,6.0,12.0,59,0.00,,OVC070,0.00,VWS V14.00,2013-10-23 22:12:00,
2013-10-23 17:17:00,37.3,24.3,30.12,NNW,332,0.0,12.0,59,0.00,,OVC070,0.00,VWS V14.00,2013-10-23 22:17:00,
2013-10-23 17:22:00,37.3,24.3,30.12,NNW,337,0.0,9.0,59,0.00,,OVC070,0.00,VWS V14.00,2013-10-23 22:22:00,
2013-10-23 17:27:00,37.2,24.6,30.12,NNW,338,4.0,10.0,60,0.00,,OVC070,0.00,VWS V14.00,2013-10-23 22:27:00,
2013-10-23 17:32:00,37.1,24.5,30.12,NNW,342,0.0,9.0,60,0.00,,OVC070,0.00,VWS V14.00,2013-10-23 22:32:00,
2013-10-23 17:37:00,37.0,24.4,30.13,NNW,340,0.0,13.0,60,0.00,,OVC070,0.00,VWS V14.00,2013-10-23 22:37:00,
2013-10-23 17:42:00,36.9,24.3,30.13,NNW,337,0.0,0.0,60,0.00,,OVC070,0.00,VWS V14.00,2013-10-23 22:42:00,
2013-10-23 17:47:00,36.9,24.3,30.13,NNW,335,0.0,0.0,60,0.00,,OVC070,0.00,VWS V14.00,2013-10-23 22:47:00,
2013-10-23 17:52:00,36.8,24.6,30.13,NNW,340,8.0,8.0,61,0.00,,OVC070,0.00,VWS V14.00,2013-10-23 22:52:00,
2013-10-23 17:57:00,36.7,24.5,30.13,North,350,6.0,8.0,61,0.00,,OVC070,0.00,VWS V14.00,2013-10-23 22:57:00,
2013-10-23 18:02:00,36.7,24.5,30.13,North,357,8.0,9.0,61,0.00,,OVC070,0.00,VWS V14.00,2013-10-23 23:02:00,
2013-10-23 18:07:00,36.5,24.7,30.13,North,1,7.0,10.0,62,0.00,,OVC070,0.00,VWS V14.00,2013-10-23 23:07:00,
2013-10-23 18:12:00,36.3,24.5,30.13,North,0,7.0,9.0,62,0.00,,OVC070,0.00,VWS V14.00,2013-10-23 23:12:00,
2013-10-23 18:18:00,36.1,24.7,30.13,North,3,1.0,10.0,63,0.00,,OVC070,0.00,VWS V14.00,2013-10-23 23:18:00,
2013-10-23 18:23:00,35.8,24.8,30.14,North,3,0.0,8.0,64,0.00,,OVC070,0.00,VWS V14.00,2013-10-23 23:23:00,
2013-10-23 18:28:00,35.7,24.7,30.13,North,3,1.0,8.0,64,0.00,,OVC070,0.00,VWS V14.00,2013-10-23 23:28:00,
2013-10-23 18:33:00,35.5,24.5,30.13,North,3,0.0,0.0,64,0.00,,OVC070,0.00,VWS V14.00,2013-10-23 23:33:00,
2013-10-23 18:38:00,35.4,24.8,30.13,North,3,0.0,0.0,65,0.00,,OVC070,0.00,VWS V14.00,2013-10-23 23:38:00,
2013-10-23 18:43:00,35.2,24.6,30.13,North,3,0.0,0.0,65,0.00,,OVC070,0.00,VWS V14.00,2013-10-23 23:43:00,
2013-10-23 18:48:00,35.1,24.5,30.14,North,3,0.0,6.0,65,0.00,,OVC070,0.00,VWS V14.00,2013-10-23 23:48:00,
2013-10-23 18:53:00,35.0,24.4,30.14,North,3,0.0,0.0,65,0.00,,OVC070,0.00,VWS V14.00,2013-10-23 23:53:00,
2013-10-23 18:58:00,35.0,24.4,30.14,North,3,0.0,0.0,65,0.00,,OVC070,0.00,VWS V14.00,2013-10-23 23:58:00,
2013-10-23 19:03:00,34.9,24.7,30.14,North,3,0.0,0.0,66,0.00,,OVC070,0.00,VWS V14.00,2013-10-24 00:03:00,
2013-10-23 19:08:00,34.8,24.6,30.14,North,3,0.0,0.0,66,0.00,,OVC070,0.00,VWS V14.00,2013-10-24 00:08:00,
2013-10-23 19:13:00,34.7,24.5,30.14,North,3,0.0,0.0,66,0.00,,OVC070,0.00,VWS V14.00,2013-10-24 00:13:00,
2013-10-23 19:18:00,34.6,24.4,30.14,North,3,0.0,0.0,66,0.00,,OVC070,0.00,VWS V14.00,2013-10-24 00:18:00,
2013-10-23 19:23:00,34.5,24.7,30.14,North,3,0.0,0.0,67,0.00,,OVC070,0.00,VWS V14.00,2013-10-24 00:23:00,
2013-10-23 19:28:00,34.4,24.6,30.14,North,3,0.0,0.0,67,0.00,,OVC070,0.00,VWS V14.00,2013-10-24 00:28:00,
2013-10-23 19:33:00,34.3,24.5,30.15,North,3,0.0,0.0,67,0.00,,OVC070,0.00,VWS V14.00,2013-10-24 00:33:00,
2013-10-23 19:38:00,34.1,24.7,30.15,North,3,0.0,0.0,68,0.00,,OVC070,0.00,VWS V14.00,2013-10-24 00:38:00,
2013-10-23 19:43:00,33.9,24.5,30.15,North,3,0.0,0.0,68,0.00,,OVC070,0.00,VWS V14.00,2013-10-24 00:43:00,
2013-10-23 19:48:00,33.8,24.4,30.15,North,3,0.0,0.0,68,0.00,,OVC070,0.00,VWS V14.00,2013-10-24 00:48:00,
2013-10-23 19:53:00,33.7,24.3,30.15,North,3,0.0,0.0,68,0.00,,OVC070,0.00,VWS V14.00,2013-10-24 00:53:00,
2013-10-23 19:58:00,33.6,24.2,30.15,North,3,0.0,0.0,68,0.00,,OVC070,0.00,VWS V14.00,2013-10-24 00:58:00,
2013-10-23 20:03:00,33.6,24.5,30.15,North,3,0.0,0.0,69,0.00,,OVC065,0.00,VWS V14.00,2013-10-24 01:03:00,
2013-10-23 20:08:00,33.6,24.5,30.15,North,3,0.0,0.0,69,0.00,,OVC065,0.00,VWS V14.00,2013-10-24 01:08:00,
2013-10-23 20:13:00,33.6,24.5,30.15,North,3,0.0,0.0,69,0.00,,OVC065,0.00,VWS V14.00,2013-10-24 01:13:00,
2013-10-23 20:18:00,33.7,24.6,30.15,North,3,0.0,0.0,69,0.00,,OVC065,0.00,VWS V14.00,2013-10-24 01:18:00,
2013-10-23 20:23:00,33.9,24.5,30.15,North,3,0.0,0.0,68,0.00,,OVC065,0.00,VWS V14.00,2013-10-24 01:23:00,
2013-10-23 20:28:00,34.1,24.7,30.15,North,3,0.0,0.0,68,0.00,,OVC065,0.00,VWS V14.00,2013-10-24 01:28:00,
2013-10-23 20:33:00,34.2,25.1,30.15,North,3,0.0,0.0,69,0.00,,OVC065,0.00,VWS V14.00,2013-10-24 01:33:00,
2013-10-23 20:38:00,34.3,25.2,30.15,North,3,0.0,0.0,69,0.00,,OVC065,0.00,VWS V14.00,2013-10-24 01:38:00,
2013-10-23 20:43:00,34.4,25.3,30.15,North,0,0.0,0.0,69,0.00,,OVC065,0.00,VWS V14.00,2013-10-24 01:43:00,
2013-10-23 20:48:00,34.5,25.7,30.15,WNW,302,0.0,4.0,70,0.00,,OVC065,0.00,VWS V14.00,2013-10-24 01:48:00,
2013-10-23 20:53:00,34.4,26.0,30.15,WNW,300,0.0,0.0,71,0.00,,,0.00,VWS V14.00,2013-10-24 01:53:00,
2013-10-23 20:58:00,34.4,26.0,30.15,WNW,300,0.0,0.0,71,0.00,,,0.00,VWS V14.00,2013-10-24 01:58:00,
2013-10-23 21:03:00,34.3,26.2,30.15,WNW,299,0.0,0.0,72,0.00,,,0.00,VWS V14.00,2013-10-24 02:03:00,
2013-10-23 21:08:00,34.3,26.6,30.15,WNW,299,0.0,0.0,73,0.00,,,0.00,VWS V14.00,2013-10-24 02:08:00,
2013-10-23 21:13:00,34.3,26.6,30.16,WNW,300,0.0,0.0,73,0.00,,,0.00,VWS V14.00,2013-10-24 02:13:00,
2013-10-23 21:18:00,34.3,26.9,30.16,WNW,300,0.0,0.0,74,0.00,,,0.00,VWS V14.00,2013-10-24 02:18:00,
2013-10-23 21:23:00,34.3,27.2,30.15,WNW,299,0.0,0.0,75,0.00,,,0.00,VWS V14.00,2013-10-24 02:23:00,
2013-10-23 21:28:00,34.3,27.2,30.16,WNW,299,0.0,0.0,75,0.00,,,0.00,VWS V14.00,2013-10-24 02:28:00,
2013-10-23 21:33:00,34.3,27.5,30.16,WNW,299,0.0,0.0,76,0.00,,OVC034,0.00,VWS V14.00,2013-10-24 02:33:00,
2013-10-23 21:38:00,34.3,27.5,30.16,WNW,299,0.0,0.0,76,0.00,,OVC034,0.00,VWS V14.00,2013-10-24 02:38:00,
2013-10-23 21:43:00,34.3,27.9,30.15,WNW,299,0.0,0.0,77,0.00,,OVC034,0.00,VWS V14.00,2013-10-24 02:43:00,
2013-10-23 21:48:00,34.3,27.9,30.15,WNW,286,0.0,5.0,77,0.00,,OVC034,0.00,VWS V14.00,2013-10-24 02:48:00,
2013-10-23 21:54:00,34.4,28.0,30.15,WNW,286,0.0,0.0,77,0.00,,OVC034,0.00,VWS V14.00,2013-10-24 02:54:00,
2013-10-23 21:59:00,34.4,28.3,30.15,WNW,286,0.0,0.0,78,0.00,,OVC034,0.00,VWS V14.00,2013-10-24 02:59:00,
2013-10-23 22:04:00,34.4,28.3,30.16,WNW,282,4.0,5.0,78,0.00,,OVC034,0.00,VWS V14.00,2013-10-24 03:04:00,
2013-10-23 22:09:00,34.4,28.3,30.15,WNW,284,2.0,5.0,78,0.00,,OVC020,0.00,VWS V14.00,2013-10-24 03:09:00,
2013-10-23 22:14:00,34.5,28.7,30.15,WNW,287,4.0,8.0,79,0.00,,OVC020,0.00,VWS V14.00,2013-10-24 03:14:00,
2013-10-23 22:19:00,34.5,28.7,30.15,WNW,287,0.0,8.0,79,0.00,,OVC020,0.00,VWS V14.00,2013-10-24 03:19:00,
2013-10-23 22:24:00,34.5,28.7,30.16,WNW,297,1.0,10.0,79,0.00,,OVC020,0.00,VWS V14.00,2013-10-24 03:24:00,
2013-10-23 22:29:00,34.6,28.8,30.16,WNW,293,0.0,10.0,79,0.00,,OVC020,0.00,VWS V14.00,2013-10-24 03:29:00,
2013-10-23 22:34:00,34.6,28.8,30.16,NW,310,4.0,7.0,79,0.00,,OVC014,0.00,VWS V14.00,2013-10-24 03:34:00,
2013-10-23 22:39:00,34.6,29.1,30.16,NW,309,0.0,7.0,80,0.00,,OVC014,0.00,VWS V14.00,2013-10-24 03:39:00,
2013-10-23 22:44:00,34.6,28.8,30.16,WNW,301,0.0,7.0,79,0.00,,OVC014,0.00,VWS V14.00,2013-10-24 03:44:00,
2013-10-23 22:49:00,34.5,29.0,30.16,WNW,302,0.0,7.0,80,0.00,,OVC065,0.00,VWS V14.00,2013-10-24 03:49:00,
2013-10-23 22:54:00,34.5,29.0,30.16,WNW,301,0.0,4.0,80,0.00,,OVC065,0.00,VWS V14.00,2013-10-24 03:54:00,
2013-10-23 22:59:00,34.5,29.0,30.16,WNW,302,0.0,4.0,80,0.00,,OVC065,0.00,VWS V14.00,2013-10-24 03:59:00,
2013-10-23 23:01:00,34.4,28.9,30.16,WNW,302,0.0,0.0,80,0.00,,OVC065,0.00,VWS V14.00,2013-10-24 04:01:00,
2013-10-23 23:02:00,34.4,28.9,30.16,WNW,302,0.0,0.0,80,0.00,,OVC065,0.00,VWS V14.00,2013-10-24 04:02:00,
2013-10-23 23:07:00,34.4,28.9,30.16,WNW,302,0.0,0.0,80,0.00,,OVC065,0.00,VWS V14.00,2013-10-24 04:07:00,
2013-10-23 23:12:00,34.4,28.9,30.16,NW,304,5.0,6.0,80,0.00,,OVC065,0.00,VWS V14.00,2013-10-24 04:12:00,
2013-10-23 23:17:00,34.4,28.9,30.16,WNW,294,2.0,10.0,80,0.00,,OVC065,0.00,VWS V14.00,2013-10-24 04:17:00,
2013-10-23 23:22:00,34.4,29.2,30.16,WNW,293,5.0,5.0,81,0.00,,OVC065,0.00,VWS V14.00,2013-10-24 04:22:00,
2013-10-23 23:27:00,34.4,28.9,30.17,West,280,0.0,8.0,80,0.00,,OVC065,0.00,VWS V14.00,2013-10-24 04:27:00,
2013-10-23 23:32:00,34.4,29.2,30.17,NW,306,0.0,6.0,81,0.00,,OVC065,0.00,VWS V14.00,2013-10-24 04:32:00,
2013-10-23 23:37:00,34.3,29.1,30.17,NW,310,0.0,6.0,81,0.00,,OVC065,0.00,VWS V14.00,2013-10-24 04:37:00,
2013-10-23 23:42:00,34.3,29.1,30.17,NW,308,2.0,7.0,81,0.00,,OVC065,0.00,VWS V14.00,2013-10-24 04:42:00,
2013-10-23 23:47:00,34.3,29.4,30.17,NW,307,0.0,8.0,82,0.00,,OVC065,0.00,VWS V14.00,2013-10-24 04:47:00,
2013-10-23 23:52:00,34.3,29.4,30.16,NW,307,0.0,0.0,82,0.00,,OVC065,0.00,VWS V14.00,2013-10-24 04:52:00,
2013-10-23 23:57:00,34.4,29.5,30.16,NW,307,0.0,3.0,82,0.00,,OVC065,0.00,VWS V14.00,2013-10-24 04:57:00,